GW0935 Weather Reports


Display with metric or nautical units.
time (UTC)temp
F
wind
direction
speed
MPH
gust
MPH
rain 1hr
in
rain 24hr
in
rain mn
in
humidity
%
barometer
mb
20260506021403 44 80 0.0 6.0 0.00 0.00 0.00 77 1015.7
20260506021201 44 27 1.0 6.0 0.00 0.00 0.00 77 1015.7
20260506021004 44 113 1.0 6.0 0.00 0.00 0.00 76 1015.7
20260506020802 44 82 0.0 4.0 0.00 0.00 0.00 76 1015.8
20260506020402 44 30 0.0 4.0 0.00 0.00 0.00 77 1015.7
20260506020203 45 35 1.0 4.0 0.00 0.00 0.00 76 1015.7
20260506020005 45 123 1.0 3.0 0.00 0.00 0.00 76 1015.7
20260506015602 45 32 1.0 3.0 0.00 0.00 0.00 76 1015.8
20260506015403 45 6 0.0 2.0 0.00 0.00 0.00 77 1015.7
20260506015202 45 6 0.0 2.0 0.00 0.00 0.00 76 1015.6
20260506015004 45 349 0.0 3.0 0.00 0.00 0.00 76 1015.6
20260506014603 45 176 0.0 3.0 0.00 0.00 0.00 76 1015.7
20260506014402 45 34 1.0 3.0 0.00 0.00 0.00 76 1015.7
20260506014003 45 22 1.0 3.0 0.00 0.00 0.00 76 1015.7
20260506013804 45 60 0.0 3.0 0.00 0.00 0.00 76 1015.8
20260506013403 45 312 1.0 3.0 0.00 0.00 0.00 77 1015.6
20260506013004 45 120 0.0 4.0 0.00 0.00 0.00 77 1015.7
20260506012802 45 120 0.0 4.0 0.00 0.00 0.00 77 1015.7
20260506012604 45 71 1.0 4.0 0.00 0.00 0.00 77 1015.7
20260506012402 45 77 2.0 4.0 0.00 0.00 0.00 77 1015.7
20260506012204 45 127 2.0 4.0 0.00 0.00 0.00 77 1015.8
20260506012003 45 80 1.0 4.0 0.00 0.00 0.00 78 1015.7
20260506011804 45 113 1.0 4.0 0.00 0.00 0.00 78 1015.8
20260506011601 45 86 0.0 5.0 0.00 0.00 0.00 78 1015.8
20260506011402 45 84 0.0 5.0 0.00 0.00 0.00 78 1015.9
20260506011202 45 50 1.0 5.0 0.00 0.00 0.00 77 1015.9
20260506011005 45 78 2.0 5.0 0.00 0.00 0.00 78 1015.8
20260506010802 45 96 0.0 4.0 0.00 0.00 0.00 78 1015.9
20260506010603 45 153 0.0 4.0 0.00 0.00 0.00 78 1015.7
20260506010402 45 137 0.0 4.0 0.00 0.00 0.00 78 1015.7
20260506010203 45 83 1.0 4.0 0.00 0.00 0.00 77 1015.8
20260506010005 45 110 1.0 4.0 0.00 0.00 0.00 78 1015.8
20260506005803 45 93 0.0 4.0 0.00 0.00 0.00 77 1015.8
20260506005602 45 77 0.0 4.0 0.00 0.00 0.00 77 1015.7
20260506005202 45 117 1.0 4.0 0.00 0.00 0.00 77 1015.7
20260506005005 45 86 0.0 6.0 0.00 0.00 0.00 77 1015.7
20260506004603 45 86 1.0 6.0 0.00 0.00 0.00 77 1015.7
20260506004402 45 91 2.0 6.0 0.00 0.00 0.00 77 1015.7
20260506004203 45 72 1.0 3.0 0.00 0.00 0.00 77 1015.8
20260506004003 45 100 0.0 3.0 0.00 0.00 0.00 77 1015.8
20260506003602 45 109 0.0 3.0 0.00 0.00 0.00 77 1015.8
20260506003404 45 89 0.0 3.0 0.00 0.00 0.00 76 1015.8
20260506003203 45 158 0.0 3.0 0.00 0.00 0.00 76 1015.9
20260506002804 45 70 1.0 5.0 0.00 0.00 0.00 76 1015.9
20260506002602 45 358 1.0 5.0 0.00 0.00 0.00 76 1015.9
20260506002402 45 148 1.0 6.0 0.00 0.00 0.00 76 1015.8
20260506002201 45 154 1.0 6.0 0.00 0.00 0.00 76 1015.8
20260506002002 45 144 1.0 6.0 0.00 0.00 0.00 76 1015.8
20260506001802 45 75 2.0 9.0 0.00 0.00 0.00 76 1015.8
20260506001402 45 139 2.0 9.0 0.00 0.00 0.00 76 1015.8
20260506001202 45 50 2.0 9.0 0.00 0.00 0.00 75 1015.9
20260506001003 45 89 2.0 9.0 0.00 0.00 0.00 75 1015.8
20260506000602 45 129 2.0 9.0 0.00 0.00 0.00 75 1015.8
20260506000401 45 238 1.0 9.0 0.00 0.00 0.00 75 1015.7
20260506000204 45 88 0.0 9.0 0.00 0.00 0.00 75 1015.7
20260506000005 45 65 3.0 9.0 0.00 0.00 0.00 75 1015.8
20260505235803 45 129 2.0 9.0 0.00 0.00 0.00 75 1015.8
20260505235601 45 349 3.0 7.0 0.00 0.00 0.00 75 1015.7
20260505235403 45 234 3.0 7.0 0.00 0.00 0.00 75 1015.7
20260505235201 46 126 2.0 9.0 0.00 0.00 0.00 75 1015.9
20260505235003 46 4 2.0 9.0 0.00 0.00 0.00 75 1015.8
20260505234800 46 130 2.0 9.0 0.00 0.00 0.00 75 1015.7
20260505234602 46 127 2.0 9.0 0.00 0.00 0.00 75 1015.7
20260505234202 46 106 2.0 12.0 0.00 0.00 0.00 75 1015.8
20260505234002 46 87 4.0 12.0 0.00 0.00 0.00 75 1015.8
20260505233802 46 39 4.0 12.0 0.00 0.00 0.00 75 1015.8
20260505233601 46 82 3.0 10.0 0.00 0.00 0.00 75 1015.8
20260505233402 46 319 2.0 10.0 0.00 0.00 0.00 75 1015.9
20260505233004 46 131 1.0 8.0 0.00 0.00 0.00 76 1016.0
20260505232801 46 203 2.0 8.0 0.00 0.00 0.00 76 1015.9
20260505232600 46 79 2.0 9.0 0.00 0.00 0.00 76 1015.9
20260505232402 46 289 1.0 9.0 0.00 0.00 0.00 76 1015.8
20260505232200 46 82 1.0 9.0 0.00 0.00 0.00 76 1016.0
20260505232002 46 102 1.0 9.0 0.00 0.00 0.00 76 1015.8
20260505231801 46 102 3.0 9.0 0.00 0.00 0.00 76 1015.9
20260505231601 46 65 2.0 7.0 0.00 0.00 0.00 77 1015.8
20260505231201 46 77 2.0 7.0 0.00 0.00 0.00 77 1015.8
20260505231001 46 205 1.0 7.0 0.00 0.00 0.00 77 1015.7
20260505230800 46 106 1.0 7.0 0.00 0.00 0.00 77 1015.8
20260505230602 46 345 2.0 8.0 0.00 0.00 0.00 77 1015.8
20260505230401 46 146 2.0 8.0 0.00 0.00 0.00 77 1015.8
20260505230205 46 29 1.0 8.0 0.00 0.00 0.00 77 1015.8
20260505225804 46 39 2.0 6.0 0.00 0.00 0.00 76 1015.9
20260505225603 46 139 1.0 6.0 0.00 0.00 0.00 76 1015.8
20260505225004 46 76 2.0 10.0 0.00 0.00 0.00 76 1015.9
20260505224603 46 110 3.0 10.0 0.00 0.00 0.00 76 1015.9
20260505224403 46 86 4.0 10.0 0.00 0.00 0.00 76 1015.8
20260505224203 46 337 1.0 10.0 0.00 0.00 0.00 76 1015.9
20260505224004 46 123 1.0 10.0 0.00 0.00 0.00 76 1016.0
20260505223804 46 3 4.0 10.0 0.00 0.00 0.00 76 1015.9
20260505223603 46 82 4.0 10.0 0.00 0.00 0.00 76 1016.0
20260505223404 46 264 2.0 5.0 0.00 0.00 0.00 76 1016.0
20260505223203 46 126 1.0 7.0 0.00 0.00 0.00 76 1016.0
20260505223005 46 91 1.0 7.0 0.00 0.00 0.00 76 1015.9
20260505222804 46 60 1.0 7.0 0.00 0.00 0.00 76 1016.0
20260505222604 46 84 2.0 7.0 0.00 0.00 0.00 76 1016.0
20260505222404 46 321 2.0 7.0 0.00 0.00 0.00 76 1016.0
20260505222203 46 151 2.0 7.0 0.00 0.00 0.00 76 1016.0
20260505222007 46 308 2.0 7.0 0.00 0.00 0.00 76 1016.0
20260505221804 46 110 2.0 7.0 0.00 0.00 0.00 76 1016.0
20260505221605 46 309 2.0 8.0 0.00 0.00 0.00 76 1015.9
20260505221403 46 230 1.0 8.0 0.00 0.00 0.00 76 1016.0
20260505221205 46 51 2.0 8.0 0.00 0.00 0.00 76 1015.9
20260505221004 46 146 1.0 8.0 0.00 0.00 0.00 76 1015.9
20260505220805 46 94 2.0 8.0 0.00 0.00 0.00 76 1015.9
20260505220603 46 123 0.0 6.0 0.00 0.00 0.00 76 1015.9
20260505220203 46 326 1.0 6.0 0.00 0.00 0.00 76 1015.9
20260505220008 46 120 3.0 7.0 0.00 0.00 0.00 76 1015.9
20260505215804 46 72 2.0 7.0 0.00 0.00 0.00 76 1015.8
20260505215604 46 230 1.0 8.0 0.00 0.00 0.00 76 1015.8
20260505215403 46 326 3.0 9.0 0.00 0.00 0.00 76 1015.8
20260505215203 46 98 3.0 9.0 0.00 0.00 0.00 76 1015.9
20260505215004 46 58 2.0 9.0 0.00 0.00 0.00 76 1015.8
20260505214603 46 136 2.0 7.0 0.00 0.00 0.00 75 1015.9
20260505214403 46 110 3.0 7.0 0.00 0.00 0.00 75 1015.8
20260505214204 46 86 4.0 7.0 0.00 0.00 0.00 75 1015.7
20260505213803 46 7 1.0 10.0 0.00 0.00 0.00 75 1015.8
20260505213603 47 56 2.0 10.0 0.00 0.00 0.00 75 1015.7
20260505213403 47 80 1.0 10.0 0.00 0.00 0.00 75 1015.8
20260505213203 47 194 2.0 10.0 0.00 0.00 0.00 75 1015.7
20260505213004 47 79 1.0 4.0 0.00 0.00 0.00 75 1015.7
20260505212803 47 156 1.0 4.0 0.00 0.00 0.00 75 1015.7
20260505212603 47 71 0.0 4.0 0.00 0.00 0.00 75 1015.8
20260505212403 47 31 1.0 4.0 0.00 0.00 0.00 75 1015.8
20260505212206 47 84 1.0 6.0 0.00 0.00 0.00 75 1015.7
20260505211805 47 140 1.0 7.0 0.00 0.00 0.00 75 1015.8
20260505211405 47 58 2.0 10.0 0.00 0.00 0.00 75 1015.7
20260505211204 47 259 2.0 10.0 0.00 0.00 0.00 75 1015.8
20260505211006 47 19 2.0 10.0 0.00 0.00 0.00 75 1015.7
20260505210803 47 335 4.0 10.0 0.00 0.00 0.00 75 1015.8
20260505210605 47 347 1.0 6.0 0.00 0.00 0.00 76 1015.7
20260505210403 47 77 2.0 6.0 0.00 0.00 0.00 75 1015.8
20260505210205 47 136 2.0 6.0 0.00 0.00 0.00 75 1015.7
20260505210007 47 155 0.0 6.0 0.00 0.00 0.00 75 1015.8
20260505205603 47 101 1.0 6.0 0.00 0.00 0.00 75 1015.8
20260505205403 47 309 1.0 7.0 0.00 0.00 0.00 75 1015.7
20260505205004 47 141 0.0 7.0 0.00 0.00 0.00 75 1015.7
20260505204803 47 152 3.0 7.0 0.00 0.00 0.00 75 1015.6
20260505204604 47 305 1.0 6.0 0.00 0.00 0.00 75 1015.7
20260505203803 47 144 2.0 5.0 0.00 0.00 0.00 75 1015.6
20260505203603 47 158 2.0 5.0 0.00 0.00 0.00 75 1015.7
20260505203203 47 350 2.0 5.0 0.00 0.00 0.00 75 1015.7
20260505203004 47 82 2.0 6.0 0.00 0.00 0.00 75 1015.6
20260505202803 47 258 0.0 6.0 0.00 0.00 0.00 75 1015.6
20260505202405 47 101 2.0 8.0 0.00 0.00 0.00 75 1015.6
20260505202204 47 175 1.0 8.0 0.00 0.00 0.00 75 1015.6
20260505202004 47 79 1.0 8.0 0.00 0.00 0.00 75 1015.7
20260505201804 47 158 2.0 8.0 0.00 0.00 0.00 74 1015.5
20260505201405 48 20 1.0 7.0 0.00 0.00 0.00 74 1015.5
20260505201203 48 130 2.0 7.0 0.00 0.00 0.00 74 1015.5
20260505201006 48 3 2.0 8.0 0.00 0.00 0.00 74 1015.5
20260505200803 48 83 1.0 8.0 0.00 0.00 0.00 75 1015.5
20260505200605 48 150 2.0 8.0 0.00 0.00 0.00 75 1015.5
20260505200205 48 40 3.0 7.0 0.00 0.00 0.00 75 1015.3
20260505200007 48 313 3.0 9.0 0.00 0.00 0.00 76 1015.3
20260505195805 48 141 1.0 9.0 0.00 0.00 0.00 76 1015.4
20260505195604 48 82 2.0 9.0 0.00 0.00 0.00 76 1015.3
20260505195405 48 70 3.0 9.0 0.00 0.00 0.00 76 1015.3
20260505195203 48 129 2.0 13.0 0.00 0.00 0.00 76 1015.2
20260505195011 48 148 3.0 13.0 0.00 0.00 0.00 76 1015.4
20260505194803 48 137 2.0 13.0 0.00 0.00 0.00 77 1015.2
20260505194605 49 110 3.0 13.0 0.00 0.00 0.00 77 1015.3
20260505194205 49 62 1.0 6.0 0.00 0.00 0.00 77 1015.3
20260505194004 49 91 1.0 6.0 0.00 0.00 0.00 77 1015.2
20260505193805 49 78 1.0 6.0 0.00 0.00 0.00 77 1015.2
20260505193404 49 139 1.0 8.0 0.00 0.00 0.00 77 1015.1
20260505193203 49 115 0.0 8.0 0.00 0.00 0.00 77 1015.1
20260505193006 49 32 2.0 8.0 0.00 0.00 0.00 77 1015.0
20260505192803 49 61 1.0 7.0 0.00 0.00 0.00 77 1015.0
20260505192605 49 104 0.0 6.0 0.00 0.00 0.00 77 1015.0
20260505192403 49 126 2.0 8.0 0.00 0.00 0.00 77 1015.0
20260505192203 49 86 2.0 8.0 0.00 0.00 0.00 77 1015.0
20260505192006 49 86 3.0 8.0 0.00 0.00 0.00 77 1015.0
20260505191803 49 87 3.0 8.0 0.00 0.00 0.00 76 1015.0
20260505191604 49 108 3.0 7.0 0.00 0.00 0.00 76 1014.9
20260505191403 49 50 3.0 7.0 0.00 0.00 0.00 76 1014.9
20260505191204 49 88 2.0 7.0 0.00 0.00 0.00 77 1014.9
20260505190805 50 359 3.0 7.0 0.00 0.00 0.00 76 1014.9
20260505190405 50 73 3.0 8.0 0.00 0.00 0.00 76 1014.9
20260505190204 50 92 1.0 8.0 0.00 0.00 0.00 76 1014.9
20260505190009 50 23 3.0 8.0 0.00 0.00 0.00 75 1014.8
20260505185803 50 94 1.0 6.0 0.00 0.00 0.00 75 1014.8
20260505185204 50 84 2.0 6.0 0.00 0.00 0.00 75 1014.8
20260505185004 51 82 1.0 7.0 0.00 0.00 0.00 75 1014.7
20260505184803 50 305 2.0 7.0 0.00 0.00 0.00 75 1014.8
20260505184603 51 32 1.0 7.0 0.00 0.00 0.00 76 1014.7
20260505184403 51 263 1.0 7.0 0.00 0.00 0.00 76 1014.8
20260505184203 51 60 2.0 7.0 0.00 0.00 0.00 76 1014.6
20260505184004 51 84 0.0 5.0 0.00 0.00 0.00 76 1014.7
20260505183803 51 106 1.0 6.0 0.00 0.00 0.00 76 1014.8
20260505183603 51 288 1.0 6.0 0.00 0.00 0.00 76 1014.6
20260505183403 51 321 3.0 6.0 0.00 0.00 0.00 75 1014.6
20260505183203 51 98 2.0 6.0 0.00 0.00 0.00 75 1014.6
20260505183004 51 94 1.0 5.0 0.00 0.00 0.00 76 1014.6
20260505182804 51 112 1.0 5.0 0.00 0.00 0.00 75 1014.5
20260505182603 51 15 1.0 4.0 0.00 0.00 0.00 75 1014.6
20260505182403 51 72 1.0 4.0 0.00 0.00 0.00 75 1014.7
20260505182206 51 340 2.0 4.0 0.00 0.00 0.00 75 1014.6
20260505181804 51 27 1.0 5.0 0.00 0.00 0.00 75 1014.6
20260505181603 51 41 1.0 5.0 0.00 0.00 0.00 75 1014.5
20260505181405 51 336 1.0 5.0 0.00 0.00 0.00 74 1014.5
20260505181204 51 7 0.0 5.0 0.00 0.00 0.00 74 1014.6
20260505181006 51 89 1.0 5.0 0.00 0.00 0.00 74 1014.5
20260505180804 51 167 0.0 5.0 0.00 0.00 0.00 74 1014.5
20260505180605 51 101 1.0 7.0 0.00 0.00 0.00 73 1014.5
20260505180404 51 49 1.0 9.0 0.00 0.00 0.00 74 1014.6
20260505180204 51 46 1.0 9.0 0.00 0.00 0.00 73 1014.6
20260505180007 51 47 2.0 9.0 0.00 0.00 0.00 73 1014.6
20260505175803 52 53 3.0 9.0 0.00 0.00 0.00 73 1014.5
20260505175603 52 93 2.0 8.0 0.00 0.00 0.00 74 1014.6
20260505175403 52 150 4.0 8.0 0.00 0.00 0.00 74 1014.5
20260505175203 52 347 1.0 8.0 0.00 0.00 0.00 75 1014.5
20260505175004 52 90 2.0 8.0 0.00 0.00 0.00 75 1014.5
20260505174803 52 98 2.0 6.0 0.00 0.00 0.00 75 1014.6
20260505174404 52 103 1.0 6.0 0.00 0.00 0.00 76 1014.4
20260505173804 53 61 2.0 5.0 0.00 0.00 0.00 75 1014.4
20260505173604 53 352 2.0 5.0 0.00 0.00 0.00 74 1014.4
20260505173203 53 350 1.0 5.0 0.00 0.00 0.00 74 1014.4
20260505173004 53 81 1.0 5.0 0.00 0.00 0.00 74 1014.3
20260505172804 53 79 2.0 5.0 0.00 0.00 0.00 74 1014.4
20260505172605 53 12 3.0 5.0 0.00 0.00 0.00 73 1014.3
20260505172005 53 23 1.0 7.0 0.00 0.00 0.00 72 1014.4
20260505171604 53 312 3.0 8.0 0.00 0.00 0.00 72 1014.4
20260505171404 53 340 3.0 8.0 0.00 0.00 0.00 71 1014.4
20260505171204 53 328 2.0 8.0 0.00 0.00 0.00 71 1014.4
20260505171007 53 310 3.0 8.0 0.00 0.00 0.00 71 1014.5
20260505170804 53 338 3.0 8.0 0.00 0.00 0.00 71 1014.5
20260505170606 54 30 3.0 10.0 0.00 0.00 0.00 71 1014.4
20260505170403 54 352 3.0 10.0 0.00 0.00 0.00 70 1014.4
20260505170205 54 56 4.0 10.0 0.00 0.00 0.00 70 1014.4
20260505165805 54 261 2.0 9.0 0.00 0.00 0.00 69 1014.5
20260505165604 54 354 3.0 9.0 0.00 0.00 0.00 69 1014.4
20260505165204 55 341 3.0 9.0 0.00 0.00 0.00 69 1014.4
20260505165007 55 315 2.0 8.0 0.00 0.00 0.00 69 1014.4
20260505164804 55 210 3.0 8.0 0.00 0.00 0.00 68 1014.3
20260505164606 55 345 2.0 5.0 0.00 0.00 0.00 68 1014.4
20260505164404 55 342 2.0 5.0 0.00 0.00 0.00 69 1014.3
20260505164004 55 267 2.0 6.0 0.00 0.00 0.00 69 1014.4
20260505163805 55 335 2.0 6.0 0.00 0.00 0.00 69 1014.4
20260505163603 55 18 2.0 8.0 0.00 0.00 0.00 69 1014.4
20260505163406 55 274 3.0 8.0 0.00 0.00 0.00 69 1014.4
20260505163203 55 229 2.0 8.0 0.00 0.00 0.00 69 1014.3
20260505163009 55 342 3.0 8.0 0.00 0.00 0.00 68 1014.3
20260505162804 55 300 1.0 6.0 0.00 0.00 0.00 69 1014.3
20260505162605 55 357 2.0 6.0 0.00 0.00 0.00 68 1014.3
20260505162204 55 32 2.0 6.0 0.00 0.00 0.00 68 1014.3
20260505162004 55 340 2.0 6.0 0.00 0.00 0.00 68 1014.3
20260505161804 55 355 1.0 6.0 0.00 0.00 0.00 69 1014.3
20260505161604 55 299 1.0 7.0 0.00 0.00 0.00 69 1014.3
20260505161005 55 235 2.0 7.0 0.00 0.00 0.00 69 1014.3
20260505160803 55 358 2.0 7.0 0.00 0.00 0.00 70 1014.3
20260505160603 55 354 1.0 6.0 0.00 0.00 0.00 69 1014.3
20260505160403 55 284 2.0 6.0 0.00 0.00 0.00 69 1014.2
20260505160203 55 352 2.0 6.0 0.00 0.00 0.00 69 1014.3
20260505153205 56 337 1.0 5.0 0.00 0.00 0.00 63 1014.3
20260505153005 56 319 0.0 5.0 0.00 0.00 0.00 64 1014.3
20260505152805 56 342 2.0 5.0 0.00 0.00 0.00 62 1014.2
20260505152404 56 13 1.0 5.0 0.00 0.00 0.00 62 1014.3
20260505152203 56 25 1.0 5.0 0.00 0.00 0.00 61 1014.3
20260505152006 57 11 3.0 5.0 0.00 0.00 0.00 61 1014.3
20260505151803 57 342 2.0 5.0 0.00 0.00 0.00 63 1014.3
20260505151605 57 25 1.0 3.0 0.00 0.00 0.00 64 1014.3
20260505151205 57 276 1.0 5.0 0.00 0.00 0.00 64 1014.3
20260505151004 56 25 1.0 5.0 0.00 0.00 0.00 64 1014.2
20260505150604 56 70 1.0 6.0 0.00 0.00 0.00 63 1014.3
20260505150405 56 266 2.0 6.0 0.00 0.00 0.00 64 1014.3
20260505150204 56 325 1.0 6.0 0.00 0.00 0.00 65 1014.3
20260505140403 54 345 2.0 7.0 0.00 0.00 0.00 67 1014.5
20260505140204 54 1 2.0 7.0 0.00 0.00 0.00 67 1014.4
20260505125003 53 310 1.0 5.0 0.00 0.00 0.00 73 1014.8
20260505124603 52 332 1.0 5.0 0.00 0.00 0.00 73 1014.7
20260505124403 52 309 3.0 7.0 0.00 0.00 0.00 73 1014.7
20260505124202 52 82 3.0 7.0 0.00 0.00 0.00 73 1014.7
20260505124003 52 20 1.0 7.0 0.00 0.00 0.00 74 1014.8
20260505123602 52 7 3.0 9.0 0.00 0.00 0.00 74 1014.8
20260505123403 52 289 2.0 9.0 0.00 0.00 0.00 74 1014.7
20260505123202 52 334 4.0 9.0 0.00 0.00 0.00 73 1014.7
20260505123004 52 332 3.0 9.0 0.00 0.00 0.00 73 1014.8
20260505122804 52 344 3.0 7.0 0.00 0.00 0.00 74 1014.8
20260505122604 52 319 1.0 6.0 0.00 0.00 0.00 74 1014.8
20260505122402 52 154 1.0 6.0 0.00 0.00 0.00 75 1014.7
20260505122204 52 342 1.0 6.0 0.00 0.00 0.00 75 1014.8
20260505122003 52 23 2.0 6.0 0.00 0.00 0.00 75 1014.8
20260505121804 52 288 3.0 6.0 0.00 0.00 0.00 74 1014.8
20260505121602 52 1 2.0 9.0 0.00 0.00 0.00 74 1014.8
20260505121404 52 345 2.0 9.0 0.00 0.00 0.00 74 1014.8
20260505121202 52 345 2.0 9.0 0.00 0.00 0.00 73 1014.9
20260505121005 52 352 3.0 9.0 0.00 0.00 0.00 73 1014.8
20260505120802 53 22 4.0 9.0 0.00 0.00 0.00 73 1014.8
20260505120604 53 343 2.0 7.0 0.00 0.00 0.00 73 1014.9
20260505120204 53 17 3.0 7.0 0.00 0.00 0.00 73 1014.9
20260505120008 53 27 4.0 7.0 0.00 0.00 0.00 72 1014.9
20260505115804 53 305 3.0 7.0 0.00 0.00 0.00 74 1014.9
20260505115603 53 333 1.0 7.0 0.00 0.00 0.00 74 1014.9
20260505115404 53 6 3.0 7.0 0.00 0.00 0.00 73 1014.8
20260505115202 53 56 3.0 7.0 0.00 0.00 0.00 72 1014.9
20260505115005 53 1 3.0 7.0 0.00 0.00 0.00 72 1014.9
20260505114604 53 248 2.0 5.0 0.00 0.00 0.00 71 1014.7
20260505114402 53 348 2.0 5.0 0.00 0.00 0.00 71 1014.8
20260505114204 53 358 3.0 5.0 0.00 0.00 0.00 70 1014.8
20260505114003 53 349 2.0 5.0 0.00 0.00 0.00 71 1014.9
20260505113804 53 305 1.0 5.0 0.00 0.00 0.00 71 1014.9
20260505113602 53 354 2.0 5.0 0.00 0.00 0.00 71 1014.9
20260505113404 53 304 2.0 5.0 0.00 0.00 0.00 71 1014.9
20260505113202 53 345 2.0 6.0 0.00 0.00 0.00 72 1015.0
20260505113006 52 88 1.0 9.0 0.00 0.00 0.00 72 1015.0
20260505112802 52 316 1.0 9.0 0.00 0.00 0.00 73 1015.0
20260505112604 52 360 3.0 9.0 0.00 0.00 0.00 71 1015.0
20260505112402 52 26 5.0 9.0 0.00 0.00 0.00 71 1015.1
20260505112203 52 8 2.0 7.0 0.00 0.00 0.00 71 1015.0
20260505112003 52 331 3.0 7.0 0.00 0.00 0.00 72 1015.1
20260505111803 52 37 3.0 7.0 0.00 0.00 0.00 72 1014.9
20260505111602 52 12 1.0 4.0 0.00 0.00 0.00 73 1014.9
20260505111405 52 356 1.0 4.0 0.00 0.00 0.00 75 1014.9
20260505111202 51 7 0.0 4.0 0.00 0.00 0.00 75 1014.9
20260505110802 51 323 1.0 4.0 0.00 0.00 0.00 77 1015.0
20260505110604 51 25 0.0 4.0 0.00 0.00 0.00 77 1015.0
20260505110402 51 200 1.0 4.0 0.00 0.00 0.00 77 1015.0
20260505110202 51 326 1.0 4.0 0.00 0.00 0.00 77 1015.0
20260505102204 50 252 2.0 5.0 0.00 0.00 0.00 77 1015.2
20260505102011 50 310 1.0 6.0 0.00 0.00 0.00 77 1015.3
20260505101804 50 228 1.0 6.0 0.00 0.00 0.00 77 1015.3
20260505101602 51 233 2.0 6.0 0.00 0.00 0.00 77 1015.3
20260505101202 51 11 2.0 6.0 0.00 0.00 0.00 75 1015.3
20260505101005 51 330 3.0 6.0 0.00 0.00 0.00 74 1015.2
20260505100802 51 311 3.0 6.0 0.00 0.00 0.00 74 1015.3
20260505100603 51 314 2.0 5.0 0.00 0.00 0.00 74 1015.2
20260505100402 51 271 2.0 5.0 0.00 0.00 0.00 74 1015.3
20260505100204 51 328 2.0 5.0 0.00 0.00 0.00 73 1015.2
20260505100005 51 274 1.0 6.0 0.00 0.00 0.00 73 1015.3
20260505095803 51 335 1.0 6.0 0.00 0.00 0.00 72 1015.2
20260505095603 51 308 3.0 6.0 0.00 0.00 0.00 71 1015.2
20260505095403 51 347 3.0 6.0 0.00 0.00 0.00 71 1015.3
20260505095202 51 260 3.0 7.0 0.00 0.00 0.00 71 1015.2
20260505095003 52 29 2.0 7.0 0.00 0.00 0.00 71 1015.1
20260505094802 52 333 2.0 7.0 0.00 0.00 0.00 70 1015.3
20260505094402 52 309 3.0 7.0 0.00 0.00 0.00 70 1015.3
20260505094202 52 353 2.0 6.0 0.00 0.00 0.00 70 1015.3
20260505094003 52 327 2.0 6.0 0.00 0.00 0.00 71 1015.2
20260505093802 52 104 1.0 5.0 0.00 0.00 0.00 71 1015.2
20260505093602 52 283 1.0 5.0 0.00 0.00 0.00 71 1015.3
20260505093402 52 210 2.0 5.0 0.00 0.00 0.00 71 1015.2
20260505093003 52 158 1.0 6.0 0.00 0.00 0.00 71 1015.2
20260505092602 52 68 1.0 6.0 0.00 0.00 0.00 70 1015.2
20260505092402 52 289 3.0 6.0 0.00 0.00 0.00 70 1015.2
20260505092202 52 319 2.0 6.0 0.00 0.00 0.00 69 1015.2
20260505092003 52 218 2.0 6.0 0.00 0.00 0.00 69 1015.3
20260505091802 52 21 3.0 6.0 0.00 0.00 0.00 69 1015.3
20260505091602 53 34 1.0 4.0 0.00 0.00 0.00 69 1015.3
20260505091402 52 292 1.0 8.0 0.00 0.00 0.00 71 1015.2
20260505091202 52 248 2.0 8.0 0.00 0.00 0.00 71 1015.2
20260505091003 52 290 1.0 8.0 0.00 0.00 0.00 72 1015.3
20260505090802 51 163 2.0 8.0 0.00 0.00 0.00 71 1015.2
20260505090602 51 334 2.0 8.0 0.00 0.00 0.00 73 1015.3
20260505090402 51 303 2.0 7.0 0.00 0.00 0.00 72 1015.2
20260505090202 51 252 3.0 6.0 0.00 0.00 0.00 73 1015.2
20260505090008 51 346 1.0 5.0 0.00 0.00 0.00 76 1015.3
20260505085604 50 323 2.0 5.0 0.00 0.00 0.00 75 1015.3
20260505085402 50 345 1.0 5.0 0.00 0.00 0.00 76 1015.2
20260505085204 50 319 3.0 5.0 0.00 0.00 0.00 76 1015.3
20260505085004 50 32 2.0 5.0 0.00 0.00 0.00 77 1015.3
20260505084803 50 276 1.0 5.0 0.00 0.00 0.00 78 1015.3
20260505084603 50 320 2.0 5.0 0.00 0.00 0.00 78 1015.3
20260505084404 50 308 2.0 5.0 0.00 0.00 0.00 78 1015.4
20260505084202 50 229 2.0 5.0 0.00 0.00 0.00 79 1015.4
20260505084005 50 17 1.0 5.0 0.00 0.00 0.00 80 1015.4
20260505083802 50 7 1.0 7.0 0.00 0.00 0.00 80 1015.5
20260505083604 50 354 2.0 7.0 0.00 0.00 0.00 80 1015.5
20260505083203 50 27 3.0 7.0 0.00 0.00 0.00 80 1015.4
20260505083003 50 309 1.0 5.0 0.00 0.00 0.00 80 1015.4
20260505082602 50 328 2.0 6.0 0.00 0.00 0.00 80 1015.4
20260505082202 50 349 1.0 6.0 0.00 0.00 0.00 82 1015.4
20260505082005 49 288 2.0 7.0 0.00 0.00 0.00 83 1015.4
20260505081802 49 16 2.0 7.0 0.00 0.00 0.00 84 1015.4
20260505081604 49 338 1.0 7.0 0.00 0.00 0.00 85 1015.4
20260505081402 49 307 2.0 7.0 0.00 0.00 0.00 85 1015.4
20260505081204 49 343 2.0 7.0 0.00 0.00 0.00 87 1015.4
20260505081003 49 214 0.0 3.0 0.00 0.00 0.00 86 1015.4
20260505080804 49 288 1.0 3.0 0.00 0.00 0.00 86 1015.4
20260505080602 49 196 0.0 6.0 0.00 0.00 0.00 86 1015.4
20260505080403 49 23 0.0 6.0 0.00 0.00 0.00 86 1015.5
20260505075602 49 307 1.0 6.0 0.00 0.00 0.00 86 1015.4
20260505075403 49 316 2.0 6.0 0.00 0.00 0.00 86 1015.4
20260505075202 49 30 3.0 6.0 0.00 0.00 0.00 86 1015.4
20260505075003 49 333 1.0 3.0 0.00 0.00 0.00 86 1015.4
20260505074802 49 20 1.0 3.0 0.00 0.00 0.00 87 1015.3
20260505074202 48 347 0.0 3.0 0.00 0.00 0.00 88 1015.4
20260505074003 48 320 1.0 3.0 0.00 0.00 0.00 88 1015.4
20260505073802 48 323 1.0 2.0 0.00 0.00 0.00 89 1015.4
20260505073602 48 352 0.0 2.0 0.00 0.00 0.00 90 1015.3
20260505073402 48 211 0.0 0.0 0.00 0.00 0.00 90 1015.3
20260505073202 47 354 0.0 0.0 0.00 0.00 0.00 91 1015.3
20260505073002 47 222 0.0 0.0 0.00 0.00 0.00 91 1015.3
20260505072802 47 222 0.0 0.0 0.00 0.00 0.00 91 1015.3
20260505072602 47 222 0.0 0.0 0.00 0.00 0.00 91 1015.3
20260505072402 47 222 0.0 0.0 0.00 0.00 0.00 91 1015.4
20260505072003 47 222 0.0 0.0 0.00 0.00 0.00 91 1015.3
20260505071802 47 222 0.0 0.0 0.00 0.00 0.00 92 1015.3
20260505071602 47 222 0.0 0.0 0.00 0.00 0.00 92 1015.3
20260505071003 47 231 0.0 0.0 0.00 0.00 0.00 92 1015.4
20260505070802 47 247 0.0 0.0 0.00 0.00 0.00 92 1015.4
20260505070602 47 247 0.0 0.0 0.00 0.00 0.00 92 1015.5
20260505070404 46 247 0.0 0.0 0.00 0.00 0.00 92 1015.4
20260505065802 46 247 0.0 0.0 0.00 0.00 0.00 93 1015.5
20260505065402 46 247 0.0 0.0 0.00 0.00 0.00 93 1015.5
20260505065203 46 247 0.0 0.0 0.00 0.00 0.00 93 1015.5
20260505065003 46 247 0.0 0.0 0.00 0.00 0.00 93 1015.4
20260505064804 46 247 0.0 0.0 0.00 0.00 0.00 93 1015.5
20260505064602 46 247 0.0 0.0 0.00 0.00 0.00 93 1015.5
20260505064403 46 247 0.0 0.0 0.00 0.00 0.00 93 1015.5
20260505064201 46 248 0.0 0.0 0.00 0.00 0.00 94 1015.6
20260505064004 46 248 0.0 0.0 0.00 0.00 0.00 94 1015.5
20260505063802 46 248 0.0 0.0 0.00 0.00 0.00 94 1015.5
20260505063604 46 248 0.0 0.0 0.00 0.00 0.00 94 1015.5
20260505063402 45 248 0.0 0.0 0.00 0.00 0.00 94 1015.5
20260505063204 45 248 0.0 0.0 0.00 0.00 0.00 94 1015.5
20260505063003 45 248 0.0 0.0 0.00 0.00 0.00 94 1015.6
20260505062802 45 248 0.0 0.0 0.00 0.00 0.00 94 1015.6
20260505062602 45 248 0.0 0.0 0.00 0.00 0.00 94 1015.6
20260505062402 45 248 0.0 0.0 0.00 0.00 0.00 95 1015.6
20260505061602 45 248 0.0 0.0 0.00 0.00 0.00 95 1015.6
20260505061402 44 248 0.0 0.0 0.00 0.00 0.00 95 1015.6
20260505061202 44 248 0.0 0.0 0.00 0.00 0.00 95 1015.6
20260505061003 44 246 0.0 0.0 0.00 0.00 0.00 95 1015.6
20260505060802 44 3 0.0 1.0 0.00 0.00 0.00 95 1015.6
20260505060602 44 4 0.0 1.0 0.00 0.00 0.00 95 1015.5
20260505060405 44 4 0.0 1.0 0.00 0.00 0.00 95 1015.5
20260505060202 44 344 0.0 1.0 0.00 0.00 0.00 95 1015.6
20260505060006 44 1 1.0 1.0 0.00 0.00 0.00 95 1015.5
20260505055602 44 8 0.0 0.0 0.00 0.00 0.00 95 1015.5
20260505055403 44 8 0.0 0.0 0.00 0.00 0.00 95 1015.4
20260505055203 44 8 0.0 0.0 0.00 0.00 0.00 96 1015.5
20260505055005 44 8 0.0 0.0 0.00 0.00 0.00 96 1015.5
20260505054802 44 8 0.0 0.0 0.00 0.00 0.00 96 1015.4
20260505054603 43 8 0.0 0.0 0.00 0.00 0.00 96 1015.4
20260505054402 43 8 0.0 1.0 0.00 0.00 0.00 96 1015.3
20260505054204 43 8 0.0 1.0 0.00 0.00 0.00 96 1015.4
20260505054003 42 8 0.0 2.0 0.00 0.00 0.00 96 1015.4
20260505053804 42 8 0.0 2.0 0.00 0.00 0.00 96 1015.3
20260505053602 41 8 0.0 2.0 0.00 0.00 0.00 96 1015.3
20260505053404 41 8 0.0 3.0 0.00 0.00 0.00 96 1015.5
20260505053202 41 8 1.0 5.0 0.00 0.00 0.00 96 1015.4
20260505052802 41 298 0.0 5.0 0.00 0.00 0.00 96 1015.5
20260505052604 40 278 1.0 5.0 0.00 0.00 0.00 96 1015.6
20260505052402 40 256 2.0 5.0 0.00 0.00 0.00 96 1015.6
20260505052204 40 292 0.0 0.0 0.00 0.00 0.00 96 1015.4
20260505051804 40 342 0.0 0.0 0.00 0.00 0.00 96 1015.4
20260505051602 40 342 0.0 0.0 0.00 0.00 0.00 96 1015.4
20260505051203 39 342 0.0 0.0 0.00 0.00 0.00 96 1015.2
20260505051006 39 342 0.0 0.0 0.00 0.00 0.00 96 1015.2
20260505050802 39 342 0.0 0.0 0.00 0.00 0.00 96 1015.3
20260505050604 39 342 0.0 0.0 0.00 0.00 0.00 95 1015.2
20260505050404 39 342 0.0 0.0 0.00 0.00 0.00 95 1015.3
20260505050202 39 342 0.0 0.0 0.00 0.00 0.00 95 1015.2
20260505041602 38 342 0.0 0.0 0.00 0.00 0.00 95 1015.0
20260505041402 38 342 0.0 0.0 0.00 0.00 0.00 95 1015.0
20260505041202 38 342 0.0 0.0 0.00 0.00 0.00 95 1015.0
20260505040802 38 342 0.0 0.0 0.00 0.00 0.00 95 1015.0
20260505040402 39 342 0.0 0.0 0.00 0.00 0.00 95 1014.9
20260505040205 39 342 0.0 0.0 0.00 0.00 0.00 95 1014.9
20260505035802 39 342 0.0 0.0 0.00 0.00 0.00 94 1014.9
20260505035603 39 342 0.0 0.0 0.00 0.00 0.00 94 1015.0
20260505035402 39 342 0.0 0.0 0.00 0.00 0.00 95 1015.0
20260505035203 39 342 0.0 0.0 0.00 0.00 0.00 95 1015.0
20260505035003 39 342 0.0 0.0 0.00 0.00 0.00 95 1015.2
20260505034802 39 342 0.0 0.0 0.00 0.00 0.00 95 1015.1
20260505034603 39 342 0.0 0.0 0.00 0.00 0.00 95 1015.0
20260505034203 39 342 0.0 0.0 0.00 0.00 0.00 95 1015.1
20260505034003 39 342 0.0 0.0 0.00 0.00 0.00 95 1015.0
20260505033802 39 342 0.0 0.0 0.00 0.00 0.00 95 1015.0
20260505033402 39 342 0.0 0.0 0.00 0.00 0.00 95 1015.0
20260505033204 39 342 0.0 0.0 0.00 0.00 0.00 95 1015.1
20260505033003 39 342 0.0 0.0 0.00 0.00 0.00 95 1015.0
20260505032804 39 342 0.0 0.0 0.00 0.00 0.00 95 1014.9
20260505032603 39 342 0.0 0.0 0.00 0.00 0.00 95 1015.1
20260505032404 39 342 0.0 0.0 0.00 0.00 0.00 95 1015.1
20260505032202 39 342 0.0 0.0 0.00 0.00 0.00 95 1015.0
20260505032005 39 342 0.0 0.0 0.00 0.00 0.00 95 1015.1
20260505031604 39 342 0.0 0.0 0.00 0.00 0.00 95 1015.2
20260505031402 39 342 0.0 0.0 0.00 0.00 0.00 95 1015.2
20260505031204 39 342 0.0 0.0 0.00 0.00 0.00 95 1015.1
20260505031005 40 342 0.0 0.0 0.00 0.00 0.00 95 1015.1
20260505030804 40 342 0.0 0.0 0.00 0.00 0.00 95 1015.2
20260505030602 40 342 0.0 0.0 0.00 0.00 0.00 95 1015.2
20260505030405 40 342 0.0 0.0 0.00 0.00 0.00 95 1015.2
20260505030004 40 342 0.0 0.0 0.00 0.00 0.00 95 1015.1
20260505025804 40 342 0.0 0.0 0.00 0.00 0.00 95 1015.2
20260505025601 40 342 0.0 0.0 0.00 0.00 0.00 95 1015.3
20260505025403 40 342 0.0 0.0 0.00 0.00 0.00 95 1015.3
20260505025201 40 342 0.0 0.0 0.00 0.00 0.00 95 1015.2
20260505024801 40 342 0.0 0.0 0.00 0.00 0.00 94 1015.3
20260505024202 40 342 0.0 0.0 0.00 0.00 0.00 94 1015.4
20260505024002 40 342 0.0 0.0 0.00 0.00 0.00 94 1015.4
20260505023803 40 342 0.0 0.0 0.00 0.00 0.00 94 1015.3
20260505023601 40 342 0.0 0.0 0.00 0.00 0.00 94 1015.2
20260505023402 40 342 0.0 0.0 0.00 0.00 0.00 94 1015.3
20260505023201 40 342 0.0 0.0 0.00 0.00 0.00 94 1015.4
20260505023004 40 342 0.0 0.0 0.00 0.00 0.00 94 1015.4
20260505022801 40 342 0.0 0.0 0.00 0.00 0.00 94 1015.4
20260505022602 40 342 0.0 0.0 0.00 0.00 0.00 94 1015.4
20260505022401 40 342 0.0 0.0 0.00 0.00 0.00 94 1015.3
20260505022203 40 342 0.0 0.0 0.00 0.00 0.00 94 1015.3
20260505022005 40 342 0.0 0.0 0.00 0.00 0.00 94 1015.3
20260505021601 40 342 0.0 0.0 0.00 0.00 0.00 94 1015.3